Skip Page Navigation
NASA JPL Caltech
NASA Logo - Jet Propulsion Laboratory + View the NASA Portal
+ Near-Earth Object (NEO) Program
Search JPL
JPL Home Earth Solar System Stars & Galaxies Technology
JPL Solar System Dynamics
BODIES ORBITS EPHEMERIDES TOOLS PHYSICAL DATA DISCOVERY FAQ SITE MAP
JPL Small-Body Database Browser
Search: [ help ]  
162116 (1998 SA15)
Classification: Apollo [NEO, PHA]          SPK-ID: 2162116
Ephemeris | Orbit Diagram | Orbital Elements | Physical Parameters | Discovery Circumstances | Close-Approach Data ]

[ hide orbit diagram ]
Orbit Diagram
Note: Make sure you have Java enabled on your browser to see the applet. This applet is provided as a 3D orbit visualization tool. The applet was implemented using 2-body methods, and hence should not be used for determining accurate long-term trajectories (over several years or decades) or planetary encounter circumstances. For accurate long-term ephemerides, please instead use our Horizons system.
Orbit Viewer

Additional Notes: the orbits shown in the applet are color coded. The planets are white lines, and the asteroid/comet is a blue line. The bright white line indicates the portion of the orbit that is above the ecliptic plane, and the darker portion is below the ecliptic plane. Likewise for the asteroid/comet orbit, the light blue indicates the portion above the ecliptic plane, and the dark blue the portion below the ecliptic plane.

Orbit Viewer applet originally written and kindly provided by Osamu Ajiki (AstroArts), and further modified by Ron Baalke (JPL).


Orbital Elements at Epoch 2456400.5 (2013-Apr-18.0) TDB
Reference: JPL 12 (heliocentric ecliptic J2000)
 Element Value Uncertainty (1-sigma)   Units 
e .5578623955543438 1.7735e-07  
a 1.916487523335268 2.7807e-08 AU
q .8473512025174441 3.3875e-07 AU
i 7.100134629116246 4.6456e-05 deg
node 114.2919857821266 0.00067317 deg
peri 331.2898419969027 0.00064441 deg
M 146.9636370804249 2.0507e-05 deg
tp 2456004.892230833789
(2012-Mar-18.39223083)
5.6274e-05 JED
period 969.0750700589856
2.65
2.1091e-05
5.774e-08
d
yr
n .3714882480446923 8.0849e-09 deg/d
Q 2.985623844153092 4.3319e-08 AU
  Orbit Determination Parameters
   # obs. used (total)      44  
   data-arc span      2928 days (8.02 yr)  
   first obs. used      1998-09-21  
   last obs. used      2006-09-27  
   planetary ephem.      DE405  
   SB-pert. ephem.      SB405-CPV-2  
   condition code      0  
   fit RMS      .62656  
   data source      ORB  
   producer      Otto Matic  
   solution date      2013-Apr-29 15:39:35  

Additional Information
 Earth MOID = .0462371 AU 
 T_jup = 3.715 
[ show covariance matrix ]

Ephemeris | Orbit Diagram | Orbital Elements | Physical Parameters | Discovery Circumstances | Close-Approach Data ]

Physical Parameter Table
Parameter Symbol Value Units Sigma Reference Notes
absolute magnitude H 19.642 mag .89583 12 autocmod 2.5c

162116 (1998 SA15)          Discovered 1998-Sep-21 by LINEAR at Socorro (704)
Reference: 20070926/Numbers.arcLast Updated: 2007-09-30

[ show close-approach data ]
Ephemeris | Orbit Diagram | Orbital Elements | Physical Parameters | Discovery Circumstances | Close-Approach Data ]
ABOUT SSD CREDITS/AWARDS PRIVACY/COPYRIGHT GLOSSARY LINKS
FirstGov 2013-May-21 21:27 UT
(server date/time)  
NASA Home Page
Site Manager:   Donald K. Yeomans
Webmaster  Alan B. Chamberlin